User: anonymous   Login
Location: Area 52 Observatory
(34.2620°N, 119.2590°W)
Time: 20:04:40
(UTC-07:00)
Language:

Hubble Space Telescope - Orbit

View from above orbital plane
View from above orbital plane
View from above satellite
View from above satellite

Ground track
Ground track

The orbit data is extracted from the following two-line orbital elements,

1 20580U 90037B   19143.10983591  .00000358  00000-0  10863-4 0  9996
2 20580  28.4705  27.7079 0002697 194.9680 299.2058 15.09226697396871
Epoch (UTC): 23 May 2019 02:38:09
Eccentricity: 0.0002697
inclination: 28.4705°
perigee height: 537 km
apogee height: 540 km
right ascension of ascending node: 27.7079°
argument of perigee: 194.9680°
revolutions per day: 15.09226697
mean anomaly at epoch: 299.2058°
orbit number at epoch: 39687

The dashed part of the orbit path shows where the satellite is in the earth's shadow,  

DLR